RH
59 63 64 62 60 59 59 60 60 60 61 57 50 39 26 16 10 8 8 8 8 8 8 7 8 8 9 10 11 11 10 10 10 9 9 8 8 9
47 49 49 48 48 47 46 45 44 43 43 47 47 48 51 53 54 52 48 38 25 15 10 9 8 8 8 8 8 8 9 10 10 10 9 9 9 9
43 47 48 44 46 45 42 42 40 39 36 42 41 42 42 42 44 44 44 48 51 51 46 39 30 19 12 9 9 9 9 8 9 9 9 9 10 10
46 46 48 45 44 43 41 39 38 36 31 31 37 41 38 38 39 41 41 39 39 42 47 51 52 44 32 21 13 10 9 9 10 10 9 10 10 11
46 48 48 49 48 47 45 42 40 37 34 32 30 27 25 26 29 31 35 39 40 40 40 41 41 43 46 44 36 29 19 13 11 10 10 9 9 9
47 48 50 51 51 51 49 47 44 40 37 35 34 32 30 28 27 26 26 26 26 26 28 32 39 43 42 39 39 38 35 34 33 25 16 11 10 9
54 56 58 58 58 58 58 58 57 56 56 56 56 56 55 52 48 45 42 36 29 27 24 24 26 28 36 41 40 37 36 36 37 41 37 31 24 14
61 63 64 66 69 71 73 72 70 68 69 68 68 66 54 46 36 25 20 21 26 23 23 18 16 18 25 32 39 43 43 45 49 49 48 51 49 47
64 65 65 68 68 69 71 73 75 76 76 74 71 58 48 30 24 21 20 23 24 26 26 27 24 20 17 15 14 18 28 39 48 52 47 46 50 51
65 64 65 68 70 67 66 67 68 66 63 60 57 48 42 34 29 26 24 22 23 25 28 27 28 29 30 26 21 18 15 12 15 42 53 42 35 35
47 38 34 30 26 26 26 26 26 27 26 26 26 26 26 25 24 24 26 32 40 49 45 37 29 25 24 26 31 26 20 17 16 15 46 52 39 29
35 37 38 39 39 39 39 38 39 38 32 31 30 29 26 25 21 18 17 19 22 21 22 27 25 31 33 28 27 33 32 24 20 18 16 33 54 44
48 49 45 41 44 46 46 42 34 30 30 30 29 26 24 21 16 11 11 12 13 15 21 30 24 24 23 22 29 35 40 39 29 17 15 14 25 55
46 44 42 44 47 50 47 38 30 25 24 22 20 21 18 14 10 9 9 11 12 11 18 36 28 30 32 24 20 22 29 44 45 35 15 16 14 13
38 34 33 38 41 38 27 24 22 20 17 14 13 12 16 18 19 18 18 19 18 17 24 41 45 43 41 39 31 25 26 25 36 44 37 19 17 19
11 10 10 12 16 22 25 24 20 19 20 19 21 24 26 32 39 48 44 41 45 33 43 48 45 42 43 43 42 34 32 29 29 32 38 35 30 25
13 11 13 17 28 33 31 28 28 30 34 36 36 34 32 36 39 56 64 62 58 54 52 50 48 49 51 52 50 46 38 29 25 23 21 27 28 30
27 27 27 29 34 45 39 33 34 38 40 44 42 42 39 37 37 42 48 52 50 50 52 54 53 50 48 46 41 34 32 28 22 18 16 17 18 21
41 43 48 54 58 55 48 40 33 34 34 34 32 29 36 39 36 33 38 48 47 45 43 42 41 40 33 26 23 24 26 35 48 33 25 17 14 14
35 39 49 66 67 64 59 49 39 34 33 31 28 27 29 29 27 30 33 35 41 48 44 43 41 40 53 63 82 80 88 80 82 74 54 51 36 31
29 38 57 70 73 69 56 50 47 41 34 30 28 26 26 29 29 32 38 45 49 47 44 45 51 94 100 100 96 81 74 100 98 100 96 100 95 94
32 38 66 74 70 65 64 63 54 42 34 29 34 51 51 56 57 65 72 78 81 87 87 91 99 99 98 99 96 87 82 98 99 98 98 93 97 94
45 48 49 58 70 74 73 67 58 56 40 45 65 77 91 100 100 98 98 98 99 100 100 98 100 99 97 99 100 97 91 100 98 97 94 97 98 100
Wind_Speed
17 16 15 16 16 16 15 16 16 15 17 19 20 22 23 24 25 26 26 27 28 29 31 32 33 35 35 36 36 37 37 37 36 35 34 34 33 32
20 19 19 19 19 19 19 19 19 19 18 19 21 22 23 24 25 26 27 28 29 30 31 31 32 33 34 35 36 36 38 39 38 38 36 37 35 34
23 22 23 22 22 22 22 22 22 23 21 18 20 23 23 25 25 26 28 28 29 29 29 31 32 33 34 34 34 34 35 36 37 38 38 38 37 35
26 25 26 26 26 26 25 25 26 27 27 24 21 21 23 26 26 25 27 28 28 29 30 30 30 30 31 31 33 34 34 34 35 36 37 37 37 36
29 28 28 28 27 28 27 27 28 28 28 27 27 26 24 26 27 28 28 27 28 29 30 30 30 31 32 32 32 32 33 33 33 33 35 35 36 37
31 31 31 30 30 30 29 29 30 30 30 30 29 29 31 31 33 31 29 32 30 30 30 30 30 31 32 32 33 33 33 32 33 34 33 34 35 35
32 32 32 33 33 34 33 33 34 33 34 34 33 32 31 33 36 36 34 34 31 32 32 33 33 32 32 33 33 33 32 32 32 32 35 34 33 33
33 34 34 34 35 35 35 34 35 35 34 36 35 33 31 31 33 34 34 33 32 31 32 30 33 33 33 35 34 33 34 33 32 31 32 33 35 35
33 32 33 33 34 34 35 35 34 34 34 34 34 32 32 30 33 34 36 36 34 32 37 36 33 31 30 33 34 35 35 34 33 33 32 32 32 34
31 31 31 29 29 31 32 32 31 31 31 33 35 32 34 33 35 37 39 39 40 39 40 43 37 36 34 34 35 34 32 31 33 33 34 34 32 32
27 28 29 28 28 31 33 33 32 32 33 36 38 39 38 39 39 41 41 44 45 43 44 47 45 45 43 39 38 38 35 33 32 33 35 35 34 33
29 30 31 33 35 36 38 39 41 38 39 41 43 44 46 46 47 47 49 51 52 53 50 47 47 47 47 47 44 42 40 39 38 37 36 37 38 36
35 35 35 36 39 41 42 42 42 43 44 46 46 47 48 49 50 50 51 54 56 57 54 51 50 50 50 48 45 44 43 43 43 41 40 40 40 41
41 43 43 44 44 45 45 45 45 45 47 47 47 47 47 47 47 49 50 51 52 54 51 49 51 49 49 51 53 50 45 44 45 47 46 43 41 42
49 51 53 52 51 48 42 41 41 42 42 44 45 44 41 40 39 39 39 43 45 45 46 44 44 44 46 48 51 53 52 49 46 47 48 49 47 45
48 50 51 52 50 47 43 41 40 40 40 40 38 36 36 35 33 31 33 35 39 40 40 40 41 43 45 45 46 50 50 52 50 47 47 48 50 50
42 44 45 45 45 44 42 40 39 38 38 37 37 36 36 36 35 34 35 35 38 38 36 36 38 41 44 46 47 48 48 47 46 45 45 47 49 50
38 40 40 40 40 38 37 36 37 38 39 39 40 39 38 39 39 39 38 38 39 40 40 38 39 42 45 47 46 46 46 46 45 44 47 49 48 49
38 38 39 38 37 35 35 36 37 39 40 41 40 39 39 40 41 40 40 41 40 39 39 38 38 41 43 45 40 42 42 40 41 43 43 45 48 47
37 38 38 37 36 36 37 38 39 39 39 40 40 40 41 42 43 43 43 42 41 40 41 40 40 37 37 37 34 32 31 31 33 36 37 36 38 39
38 36 35 35 35 35 36 37 38 38 38 39 40 41 41 40 40 41 41 39 39 38 39 37 33 29 31 30 30 29 25 27 29 30 32 33 32 35
39 37 35 34 35 35 37 38 38 39 38 38 38 38 37 37 36 36 35 34 34 33 32 29 28 28 27 28 31 29 29 27 30 29 31 32 31 31
37 37 36 37 37 38 38 39 39 39 38 38 37 35 33 32 31 29 29 28 28 28 28 27 26 25 25 28 29 27 30 28 28 31 27 29 29 30
Wind_Direction
287 285 283 281 279 278 277 275 272 265 266 270 269 267 268 269 269 268 269 269 269 269 268 269 270 270 270 269 268 267 267 267 267 266 265 266 265 263
285 284 284 283 284 284 284 282 279 276 272 273 274 273 274 273 273 272 271 271 271 272 273 273 273 273 273 273 272 270 270 269 268 267 266 265 264 263
280 282 282 281 282 281 280 280 281 280 278 273 272 276 277 276 275 274 273 272 271 270 270 270 271 272 272 272 272 273 272 271 269 268 266 266 265 262
278 279 280 280 280 280 281 282 284 285 285 283 279 275 277 279 278 277 279 280 280 280 278 276 275 272 270 270 269 268 268 269 269 269 268 266 264 263
277 276 275 276 276 276 277 278 279 279 280 280 280 281 280 279 279 281 281 280 280 281 281 281 278 276 274 273 272 271 270 267 264 265 265 265 263 261
275 275 274 273 273 273 274 274 275 276 277 277 275 275 277 279 280 277 277 279 281 282 280 278 278 278 277 273 272 272 271 271 270 266 262 261 262 262
274 274 274 274 275 274 274 273 273 273 274 274 275 273 274 272 273 274 274 274 274 274 275 277 277 275 274 273 274 275 273 272 271 270 267 262 259 260
274 275 275 275 275 276 276 275 275 275 275 275 275 274 272 271 270 272 272 270 269 270 269 268 271 269 270 271 270 269 270 272 271 268 267 266 264 258
277 276 275 276 276 276 276 276 277 277 277 277 277 277 274 272 271 271 271 271 270 268 268 264 264 268 269 270 269 268 267 267 268 267 266 263 261 261
280 279 279 278 279 278 277 278 279 278 280 279 279 276 275 273 273 273 272 272 271 270 271 270 265 265 264 266 268 268 268 266 263 263 262 260 259 256
284 285 287 287 284 283 283 283 281 281 282 281 280 281 280 279 279 278 279 279 277 275 272 271 272 269 266 264 265 266 264 262 262 260 258 258 257 256
278 280 283 284 282 282 283 283 283 283 278 277 279 280 281 281 280 280 280 278 276 275 272 272 272 272 269 265 264 264 265 264 263 261 258 256 256 254
281 281 280 281 283 285 285 283 283 282 281 280 278 276 276 277 277 278 277 276 275 274 275 275 270 269 269 269 265 261 260 260 262 262 259 255 252 253
281 281 280 280 280 281 283 285 286 286 287 284 281 280 279 278 277 274 272 271 271 273 272 272 273 272 271 268 265 262 259 257 255 255 257 255 252 251
283 284 283 282 282 281 279 278 277 276 277 277 279 282 284 284 282 278 272 269 267 267 268 269 270 270 270 270 270 266 263 258 257 255 253 255 253 251
285 284 284 284 282 279 275 273 272 273 273 274 278 279 281 284 285 283 277 273 270 267 265 266 266 267 270 271 272 270 268 266 262 259 254 253 254 253
282 281 279 277 275 274 274 275 274 272 273 275 276 278 278 279 280 279 277 274 273 273 270 267 267 267 267 269 269 270 273 272 270 268 262 252 251 252
290 290 290 287 283 279 276 273 272 272 273 274 276 278 279 280 278 277 275 273 273 273 274 272 270 269 267 266 269 273 271 270 268 265 262 259 251 249
289 290 290 288 285 281 278 276 275 275 275 276 278 279 278 278 278 277 276 275 273 276 277 276 273 273 273 273 271 269 270 267 267 264 262 260 258 251
288 287 288 287 284 283 282 282 281 280 280 280 280 279 279 278 276 275 275 277 277 275 275 275 273 273 274 275 274 267 265 269 268 265 260 258 257 254
282 283 283 282 282 282 282 282 282 282 282 282 281 280 279 276 274 275 276 276 275 275 273 271 272 269 268 269 269 274 263 267 265 263 254 255 257 255
277 277 277 277 277 278 279 282 284 285 287 287 287 285 281 278 277 276 275 274 272 270 270 269 270 269 268 262 273 272 270 266 263 267 259 256 262 258
273 274 276 278 279 281 283 284 286 288 288 289 287 282 279 277 275 274 272 272 271 271 270 271 267 264 261 262 275 267 270 268 263 267 260 257 256 251